Location: Home
(42.5358°N, 72.7383°W)
Time: 05:55:35
(UTC-05:00)

Courier 1B Rocket - Pass Details

Date: 03 December 2021
Orbit: 920 x 1202 km, 28.2° (Epoch: 25 January)

Event Time Altitude Azimuth Distance (km) Brightness Sun altitude
Rises 21:43:18 0° 214° (SW) 3,668 - -58.2°
Reaches altitude 10° 21:47:34 10° 189° (S) 2,670 - -58.9°
Maximum altitude 21:50:26 13° 162° (SSE) 2,409 - -59.3°
Drops below altitude 10° 21:53:16 10° 135° (SE) 2,623 - -59.8°
Sets 21:57:22 0° 109° (ESE) 3,550 - -60.4°
